This is the latest recevied weather packets stored in our database for station/object K7CTM. If no packets are shown the sender has not sent any weather packets the latest 1 day(s).
| Time | Temp. | Humidity | Pressure | Rain* | Wind** | Luminosity | Snow |
|---|---|---|---|---|---|---|---|
| 1778055734 | -1.67° C | 74% | 1028.6 hPa | 0 mm | 2.68 m/s, 267° | 0 W/m² | - |
| 1778055432 | -1.67° C | 73% | 1028.3 hPa | 0 mm | 2.68 m/s, 259° | 0 W/m² | - |
| 1778055129 | -1.67° C | 73% | 1028.5 hPa | 0 mm | 3.13 m/s, 269° | 0 W/m² | - |
| 1778054827 | -1.11° C | 72% | 1028.5 hPa | 0 mm | 3.58 m/s, 269° | 0 W/m² | - |
| 1778054523 | -1.11° C | 71% | 1028.6 hPa | 0 mm | 2.68 m/s, 261° | 0 W/m² | - |
| 1778054216 | -1.67° C | 70% | 1028.5 hPa | 0 mm | 3.13 m/s, 266° | 0 W/m² | - |
| 1778053912 | -1.11° C | 69% | 1028.6 hPa | 0 mm | 3.13 m/s, 248° | 0 W/m² | - |
| 1778053611 | -1.11° C | 68% | 1028.5 hPa | 0 mm | 2.68 m/s, 253° | 0 W/m² | - |
| 1778053307 | -1.11° C | 67% | 1028.7 hPa | 0 mm | 3.13 m/s, 247° | 0 W/m² | - |
| 1778053005 | -1.11° C | 66% | 1028.7 hPa | 0 mm | 3.13 m/s, 246° | 0 W/m² | - |
| 1778052702 | -1.11° C | 65% | 1028.9 hPa | 0 mm | 2.68 m/s, 266° | 0 W/m² | - |
| 1778052399 | -1.11° C | 65% | 1028.8 hPa | 0 mm | 2.68 m/s, 262° | 0 W/m² | - |
| 1778052097 | -0.56° C | 65% | 1028.7 hPa | 0 mm | 3.58 m/s, 261° | 0 W/m² | - |
| 1778051794 | -0.56° C | 65% | 1028.9 hPa | 0 mm | 3.13 m/s, 255° | 0 W/m² | - |
| 1778051492 | -0.56° C | 65% | 1028.8 hPa | 0 mm | 2.68 m/s, 254° | 0 W/m² | - |
| 1778051188 | 0° C | 63% | 1028.8 hPa | 0 mm | 3.13 m/s, 250° | 0 W/m² | - |
| 1778050885 | 0.56° C | 63% | 1028.8 hPa | 0 mm | 2.68 m/s, 277° | 0 W/m² | - |
| 1778050584 | 0° C | 61% | 1028.9 hPa | 0 mm | 2.68 m/s, 275° | 0 W/m² | - |
| 1778050280 | 0° C | 62% | 1028.9 hPa | 0 mm | 2.68 m/s, 258° | 0 W/m² | - |
| 1778049977 | 0° C | 63% | 1029 hPa | 0 mm | 2.68 m/s, 258° | 0 W/m² | - |
| 1778049672 | 0° C | 61% | 1029.2 hPa | 0 mm | 2.68 m/s, 259° | 0 W/m² | - |
| 1778049371 | 1.11° C | 58% | 1028.9 hPa | 0 mm | 2.68 m/s, 261° | 0 W/m² | - |
| 1778049068 | 1.11° C | 58% | 1028.9 hPa | 0 mm | 2.68 m/s, 271° | 0 W/m² | - |
| 1778048766 | 1.11° C | 56% | 1029.1 hPa | 0 mm | 1.79 m/s, 263° | 0 W/m² | - |
| 1778048463 | 1.11° C | 56% | 1029 hPa | 0 mm | 1.79 m/s, 255° | 0 W/m² | - |
* Rain latest hour (hover to see other rain measurements)
** Current wind speed in m/s (hover to see current wind gust speed)